Baltimore, MD

12:31 AM EDT on September 21, 2017 (GMT -0400)
Baltimore-Washington International

Weather History for KBWI - May, 2014

Change the Weather History Date:

Saturday, May 17, 2014

  Actual Average Record
Temperature  
Mean Temperature 58 °F 63 °F  
Max Temperature 67 °F 74 °F 93 °F (1896)
Min Temperature 48 °F 52 °F 33 °F (1956)
Degree Days  
Heating Degree Days 7 4  
Month to date heating degree days 49 94  
Since 1 July heating degree days 4979 4709  
Cooling Degree Days 0 2  
Month to date cooling degree days 37 24  
Year to date cooling degree days 44 38  
Growing Degree Days 7 (Base 50)    
Moisture  
Dew Point 41 °F    
Average Humidity 59    
Maximum Humidity 86    
Minimum Humidity 32    
Precipitation  
Precipitation 0.00 in 0.14 in 1.14 in (1985)
Month to date precipitation 2.48 2.11  
Year to date precipitation 22.75 15.15  
Snow  
Snow 0.00 in 0.00 in - ()
Month to date snowfall 0.0 0.0  
Since 1 July snowfall 39.0 20.1  
Snow Depth 0.00 in    
Sea Level Pressure  
Sea Level Pressure 30.06 in    
Wind  
Wind Speed 6 mph (WNW)    
Max Wind Speed 17 mph    
Max Gust Speed 23 mph    
Visibility 10 miles    
Events      
T = Trace of Precipitation, MM = Missing Value Source: NWS Daily Summary

Daily Weather History Graph

Daily Weather History Graph

Search for Another Location

Airport or City:

Trip Planner

Search our weather history database for the weather conditions in past years. The results will help you decide how hot, cold, wet, or windy it might be!

Date:

Astronomy

May. 17, 2014 Rise Set
Actual Time 5:51 AM EDT 8:14 PM EDT
Civil Twilight 5:21 AM EDT 8:45 PM EDT
Nautical Twilight 4:43 AM EDT 9:22 PM EDT
Astronomical Twilight 4:02 AM EDT 10:04 PM EDT
Moon 11:13 PM EDT (5/17) 8:32 AM EDT (5/17)
Length of Visible Light 15h 23m
Length of Day
14h 23m
Waning Gibbous, 89% of the Moon is Illuminated
May 17
Waning Gibbous
May 21
Last Quarter
May 28
New
Jun 5
First Quarter
Jun 13
Full

Hourly Weather History & Observations

Time (EDT) Temp. Dew Point Humidity Pressure Visibility Wind Dir Wind Speed Gust Speed Precip Events Conditions
12:54 AM 57.0 °F 41.0 °F 55% 29.95 in 10.0 mi NNW 4.6 mph - N/A   Mostly Cloudy
1:54 AM 55.9 °F 42.1 °F 60% 29.95 in 10.0 mi NW 4.6 mph - N/A   Mostly Cloudy
2:54 AM 52.0 °F 44.1 °F 74% 29.95 in 10.0 mi Calm Calm - N/A   Mostly Cloudy
3:54 AM 48.9 °F 44.1 °F 83% 29.97 in 10.0 mi West 3.5 mph - N/A   Scattered Clouds
4:54 AM 48.0 °F 42.1 °F 80% 29.98 in 10.0 mi West 4.6 mph - N/A   Partly Cloudy
5:54 AM 48.9 °F 41.0 °F 74% 30.00 in 10.0 mi WSW 3.5 mph - N/A   Partly Cloudy
6:54 AM 50.0 °F 44.1 °F 80% 30.03 in 10.0 mi Calm Calm - N/A   Scattered Clouds
7:54 AM 54.0 °F 42.1 °F 64% 30.05 in 10.0 mi Calm Calm - N/A   Mostly Cloudy
8:54 AM 59.0 °F 42.1 °F 53% 30.06 in 10.0 mi NW 12.7 mph - N/A   Mostly Cloudy
9:54 AM 60.1 °F 43.0 °F 53% 30.08 in 10.0 mi WNW 12.7 mph 17.3 mph N/A   Mostly Cloudy
10:54 AM 61.0 °F 43.0 °F 52% 30.08 in 10.0 mi NW 9.2 mph - N/A   Mostly Cloudy
11:54 AM 62.1 °F 43.0 °F 50% 30.08 in 10.0 mi NW 9.2 mph - N/A   Mostly Cloudy
12:54 PM 62.1 °F 42.1 °F 48% 30.09 in 10.0 mi West 10.4 mph - N/A   Mostly Cloudy
1:54 PM 64.0 °F 39.9 °F 41% 30.08 in 10.0 mi West 13.8 mph - N/A   Mostly Cloudy
2:54 PM 66.0 °F 39.0 °F 37% 30.08 in 10.0 mi WNW 8.1 mph 18.4 mph N/A   Mostly Cloudy
3:54 PM 66.0 °F 37.9 °F 36% 30.07 in 10.0 mi West 11.5 mph 18.4 mph N/A   Mostly Cloudy
4:54 PM 66.0 °F 36.0 °F 33% 30.08 in 10.0 mi West 6.9 mph - N/A   Mostly Cloudy
5:54 PM 64.9 °F 37.0 °F 36% 30.08 in 10.0 mi WNW 8.1 mph - N/A   Mostly Cloudy
6:54 PM 64.9 °F 37.0 °F 36% 30.09 in 10.0 mi NW 10.4 mph - N/A   Mostly Cloudy
7:54 PM 62.1 °F 37.0 °F 39% 30.11 in 10.0 mi Variable 4.6 mph - N/A   Mostly Cloudy
8:54 PM 55.9 °F 41.0 °F 57% 30.12 in 10.0 mi Calm Calm - N/A   Scattered Clouds
9:54 PM 54.0 °F 42.1 °F 64% 30.14 in 10.0 mi Calm Calm - N/A   Scattered Clouds
10:54 PM 53.1 °F 44.1 °F 71% 30.15 in 10.0 mi Calm Calm - N/A   Mostly Cloudy
11:54 PM 54.0 °F 44.1 °F 69% 30.16 in 10.0 mi Calm Calm - N/A   Mostly Cloudy